When you browse on this site, cookies collect data to enhance your experience and personalize the content and advertising you see.
Visit our Privacy Policy to learn more. By continuing to use the site, you agree to this use of cookies and data.
  • Em Portugal
  • Lista de países
  • Para 7 dias
  • Temperatura da água
  • Mapas de satélite
  • Mapa do tempo
  • Widgets de tempo
  • user-avatar
    Iniciar Sessão

    Previsão horária em Antuérpia

    Hoje, 18 Dezembro, Terça-feira

    Tempo Temperatura Precipitação Vento Pressão Humidade
    00:00 +4°C° 0 mm 4 m/s 767 mmHg 93%
    01:00 +3°C° 0 mm 4 m/s 767 mmHg 94%
    02:00 +2°C° 0 mm 5 m/s 766 mmHg 94%
    03:00 +2°C° 0 mm 5 m/s 766 mmHg 94%
    04:00 +2°C° 0 mm 5 m/s 766 mmHg 94%
    05:00 +3°C° 0 mm 5 m/s 766 mmHg 94%
    06:00 +4°C° 0 mm 4 m/s 765 mmHg 95%
    07:00 +3°C° 0 mm 5 m/s 765 mmHg 93%
    08:00 +5°C° 0 mm 5 m/s 765 mmHg 91%
    09:00 +4°C° 0 mm 6 m/s 764 mmHg 89%
    10:00 +5°C° 0 mm 6 m/s 764 mmHg 85%
    11:00 +7°C° 0 mm 6 m/s 763 mmHg 80%
    12:00 +7°C° 0 mm 6 m/s 763 mmHg 76%
    13:00 +7°C° 0 mm 6 m/s 762 mmHg 74%
    14:00 +7°C° 0 mm 6 m/s 761 mmHg 73%
    15:00 +5°C° 0 mm 6 m/s 761 mmHg 72%
    16:00 +5°C° 0 mm 6 m/s 760 mmHg 70%
    17:00 +5°C° 0 mm 6 m/s 760 mmHg 68%
    18:00 +4°C° 0 mm 7 m/s 759 mmHg 66%
    19:00 +4°C° 0 mm 7 m/s 758 mmHg 65%
    20:00 +5°C° 0 mm 7 m/s 758 mmHg 64%
    21:00 +5°C° 0 mm 7 m/s 757 mmHg 63%
    22:00 +5°C° 0.1 mm 7 m/s 757 mmHg 66%
    23:00 +5°C° 0.1 mm 7 m/s 757 mmHg 68%

    Amanhã, 19 Dezembro, Quarta-feira

    Tempo Temperatura Precipitação Vento Pressão Humidade
    00:00 +5°C° 0.1 mm 7 m/s 757 mmHg 71%
    01:00 +5°C° 0.6 mm 7 m/s 756 mmHg 76%
    02:00 +5°C° 0.6 mm 7 m/s 756 mmHg 81%
    03:00 +5°C° 0.6 mm 6 m/s 756 mmHg 86%
    04:00 +5°C° 0.1 mm 6 m/s 756 mmHg 87%
    05:00 +5°C° 0.1 mm 6 m/s 757 mmHg 89%
    06:00 +6°C° 0.1 mm 5 m/s 757 mmHg 90%
    07:00 +6°C° 0 mm 5 m/s 757 mmHg 90%
    08:00 +6°C° 0 mm 5 m/s 757 mmHg 91%
    09:00 +6°C° 0 mm 5 m/s 758 mmHg 91%
    10:00 +7°C° 0 mm 5 m/s 758 mmHg 88%
    11:00 +7°C° 0 mm 6 m/s 758 mmHg 86%
    12:00 +8°C° 0 mm 6 m/s 757 mmHg 83%
    13:00 +7°C° 0 mm 5 m/s 757 mmHg 83%
    14:00 +7°C° 0 mm 5 m/s 757 mmHg 83%
    15:00 +7°C° 0 mm 4 m/s 757 mmHg 83%
    16:00 +7°C° 0.1 mm 4 m/s 757 mmHg 84%
    17:00 +7°C° 0.1 mm 5 m/s 757 mmHg 84%
    18:00 +7°C° 0.1 mm 5 m/s 757 mmHg 85%
    19:00 +6°C° 0 mm 5 m/s 757 mmHg 85%
    20:00 +6°C° 0 mm 5 m/s 757 mmHg 86%
    21:00 +6°C° 0 mm 5 m/s 758 mmHg 87%
    22:00 +6°C° 0 mm 5 m/s 757 mmHg 87%
    23:00 +5°C° 0 mm 5 m/s 757 mmHg 88%

    Depois de amanhã, 20 Dezembro, Quinta-feira

    Tempo Temperatura Precipitação Vento Pressão Humidade
    00:00 +5°C° 0 mm 5 m/s 757 mmHg 88%
    01:00 +4°C° 0 mm 6 m/s 757 mmHg 89%
    02:00 +4°C° 0 mm 6 m/s 757 mmHg 89%
    03:00 +4°C° 0 mm 6 m/s 757 mmHg 89%
    04:00 +4°C° 0.1 mm 6 m/s 757 mmHg 89%
    05:00 +4°C° 0.1 mm 6 m/s 757 mmHg 88%
    06:00 +4°C° 0.1 mm 6 m/s 757 mmHg 87%
    07:00 +4°C° 0.1 mm 6 m/s 758 mmHg 86%
    08:00 +5°C° 0.1 mm 6 m/s 758 mmHg 86%
    09:00 +5°C° 0.1 mm 7 m/s 758 mmHg 85%
    10:00 +6°C° 0 mm 7 m/s 758 mmHg 82%
    11:00 +6°C° 0 mm 7 m/s 758 mmHg 80%
    12:00 +8°C° 0 mm 7 m/s 758 mmHg 77%
    13:00 +8°C° 0.2 mm 7 m/s 759 mmHg 78%
    14:00 +8°C° 0.2 mm 7 m/s 759 mmHg 79%
    15:00 +6°C° 0.2 mm 7 m/s 759 mmHg 81%
    16:00 +6°C° 0.3 mm 7 m/s 759 mmHg 81%
    17:00 +6°C° 0.3 mm 7 m/s 760 mmHg 81%
    18:00 +6°C° 0.3 mm 7 m/s 760 mmHg 82%
    19:00 +6°C° 0.1 mm 7 m/s 760 mmHg 82%
    20:00 +6°C° 0.1 mm 7 m/s 760 mmHg 82%
    21:00 +6°C° 0.1 mm 7 m/s 760 mmHg 82%
    22:00 +5°C° 0 mm 7 m/s 760 mmHg 82%
    23:00 +5°C° 0 mm 7 m/s 759 mmHg 82%

    21 Dezembro, Sexta-feira

    Tempo Temperatura Precipitação Vento Pressão Humidade
    00:00 +5°C° 0 mm 7 m/s 759 mmHg 82%
    01:00 +6°C° 0.9 mm 7 m/s 758 mmHg 84%
    02:00 +6°C° 0.9 mm 8 m/s 757 mmHg 86%
    03:00 +7°C° 0.9 mm 8 m/s 756 mmHg 87%
    04:00 +7°C° 1.6 mm 9 m/s 754 mmHg 87%
    05:00 +8°C° 1.6 mm 9 m/s 753 mmHg 87%
    06:00 +9°C° 1.6 mm 10 m/s 752 mmHg 86%
    07:00 +9°C° 1.8 mm 10 m/s 752 mmHg 87%
    08:00 +11°C° 1.8 mm 10 m/s 751 mmHg 88%
    09:00 +11°C° 1.8 mm 9 m/s 751 mmHg 88%
    10:00 +12°C° 0.6 mm 10 m/s 751 mmHg 87%
    11:00 +12°C° 0.6 mm 10 m/s 751 mmHg 86%
    12:00 +12°C° 0.6 mm 10 m/s 751 mmHg 86%
    13:00 +12°C° 0.2 mm 10 m/s 752 mmHg 80%
    14:00 +11°C° 0.2 mm 9 m/s 753 mmHg 75%
    15:00 +10°C° 0.2 mm 9 m/s 754 mmHg 70%
    16:00 +10°C° 0 mm 9 m/s 754 mmHg 70%
    17:00 +8°C° 0 mm 9 m/s 755 mmHg 70%
    18:00 +9°C° 0 mm 8 m/s 756 mmHg 71%
    19:00 +9°C° 0 mm 8 m/s 756 mmHg 72%
    20:00 +7°C° 0 mm 8 m/s 757 mmHg 74%
    21:00 +8°C° 0 mm 7 m/s 757 mmHg 75%
    22:00 +8°C° 0 mm 7 m/s 758 mmHg 78%
    23:00 +7°C° 0 mm 8 m/s 758 mmHg 80%

    22 Dezembro, Sábado

    Tempo Temperatura Precipitação Vento Pressão Humidade
    00:00 +7°C° 0 mm 8 m/s 758 mmHg 83%
    01:00 +7°C° 0 mm 8 m/s 757 mmHg 81%
    02:00 +7°C° 0 mm 8 m/s 757 mmHg 79%
    03:00 +7°C° 0 mm 8 m/s 757 mmHg 77%
    04:00 +7°C° 0.3 mm 8 m/s 756 mmHg 80%
    05:00 +8°C° 0.3 mm 9 m/s 756 mmHg 82%
    06:00 +8°C° 0.3 mm 9 m/s 755 mmHg 85%
    07:00 +8°C° 0.2 mm 9 m/s 756 mmHg 82%
    08:00 +8°C° 0.2 mm 9 m/s 756 mmHg 80%
    09:00 +9°C° 0.2 mm 8 m/s 756 mmHg 77%
    10:00 +8°C° 0 mm 9 m/s 757 mmHg 74%
    11:00 +10°C° 0 mm 9 m/s 757 mmHg 70%
    12:00 +9°C° 0 mm 10 m/s 758 mmHg 67%
    13:00 +8°C° 0 mm 9 m/s 759 mmHg 69%
    14:00 +9°C° 0 mm 8 m/s 759 mmHg 70%
    15:00 +9°C° 0 mm 7 m/s 760 mmHg 72%
    16:00 +8°C° 0 mm 7 m/s 761 mmHg 74%
    17:00 +8°C° 0 mm 6 m/s 761 mmHg 77%
    18:00 +7°C° 0 mm 6 m/s 762 mmHg 79%
    19:00 +7°C° 0 mm 6 m/s 762 mmHg 80%
    20:00 +7°C° 0 mm 5 m/s 763 mmHg 81%
    21:00 +7°C° 0 mm 5 m/s 763 mmHg 82%
    22:00 +7°C° 0 mm 5 m/s 764 mmHg 82%
    23:00 +6°C° 0 mm 5 m/s 764 mmHg 83%

    23 Dezembro, Domingo

    Tempo Temperatura Precipitação Vento Pressão Humidade
    00:00 +6°C° 0 mm 5 m/s 764 mmHg 84%
    01:00 +6°C° 0 mm 5 m/s 765 mmHg 85%
    02:00 +6°C° 0 mm 5 m/s 765 mmHg 86%
    03:00 +6°C° 0 mm 4 m/s 765 mmHg 87%
    04:00 +6°C° 0 mm 4 m/s 765 mmHg 88%
    05:00 +5°C° 0 mm 4 m/s 765 mmHg 89%
    06:00 +5°C° 0 mm 4 m/s 766 mmHg 91%
    07:00 +5°C° 0 mm 4 m/s 766 mmHg 90%
    08:00 +7°C° 0 mm 3 m/s 766 mmHg 90%
    09:00 +7°C° 0 mm 3 m/s 767 mmHg 90%
    10:00 +7°C° 0 mm 3 m/s 767 mmHg 88%
    11:00 +8°C° 0 mm 3 m/s 767 mmHg 86%
    12:00 +8°C° 0 mm 3 m/s 767 mmHg 84%
    13:00 +8°C° 0.3 mm 3 m/s 767 mmHg 86%
    14:00 +8°C° 0.3 mm 3 m/s 766 mmHg 88%
    15:00 +8°C° 0.3 mm 3 m/s 766 mmHg 90%
    16:00 +7°C° 0.2 mm 4 m/s 766 mmHg 90%
    17:00 +7°C° 0.2 mm 4 m/s 766 mmHg 90%
    18:00 +7°C° 0.2 mm 4 m/s 765 mmHg 89%
    19:00 +7°C° 0.4 mm 5 m/s 765 mmHg 90%
    20:00 +8°C° 0.4 mm 5 m/s 765 mmHg 90%
    21:00 +8°C° 0.4 mm 6 m/s 764 mmHg 91%
    22:00 +9°C° 0.1 mm 6 m/s 764 mmHg 90%
    23:00 +9°C° 0.1 mm 6 m/s 764 mmHg 89%
    Mostrar mais